Weather in Elba Island

Italy     42°46′43″N   10°17′15″E
temp.,
°C
wind,
m/s
gust,
m/s
humid.,
%
clouds,
%
prec.,
mm/h
press.,
hPa
HPBL,
m
18 may, tue
tue1823:00+18w69640 0.0 1012157
02:00+17s68720 0.0 1013191
05:00+17se577693 0.0 1013247
08:00+16se787920 0.0 1015401
11:00+16sse787769 0.0 1016442
14:00+17sse4576100 0.0 1016243
17:00+17ese22736 0.0 101458
20:00+17n22675 0.0 101419
19 may, wed
wed1923:00+17se556659 0.0 101375
02:00+17se457670 0.0 1013131
05:00+16ese438380 0.0 1012233
08:00+16nne257584 0.0 1012466
11:00+16wnw34747 0.0 1014432
14:00+17wnw567198 0.0 1014642
17:00+17nw456914 0.0 1014466
20:00+17nw45722 0.0 1014194
20 may, thu
thu2023:00+16n56765 0.0 1015305
02:00+16nne337665 0.0 1015175
05:00+16nne347574 0.0 1015200
08:00+16nne337456 0.0 1016226
11:00+16nnw33760 0.0 1018312
14:00+16wnw44750 0.0 1018295
17:00+18nw446810 0.0 1018270
20:00+18nw457418 0.0 1019105
21 may, fri
fri2123:00+17n44745 0.0 102156
02:00+17nne347753 0.0 102182
05:00+16se21756 0.0 102167
08:00+16ese327559 0.0 1022188
11:00+16se557377 0.0 1022293
14:00+17sse457986 0.0 1021312
17:00+17s4577100 0.0 1020305
20:00+17sse4677100 0.0 1018262
22 may, sat
sat2223:00+17sse6983100 0.0 1018392
02:00+17sse71085100 0.0 1015439
05:00+17sse912845 0.0 1014658
08:00+17sse9128331 0.0 1014683
11:00+17sse10138296 0.0 1013739
14:00+17sse91286100 0.0 1012649
17:00+17s6992100 0.2 1012314
20:00+18sse4591100 0.5 101291